Flag for Germany Weather past 2 weeks in Neuwied, Rhineland-Palatinate, Germany

Now
45 °F

Partly sunny.


Feels Like: 38 °F
Forecast: 41 / 55 °F
Wind: 14 mph from Northwest

Location: Buechel

Current Time: Oct 22, 2014 at 4:10:01 PM

Latest Report: Oct 22, 2014 at 3:20 PM


Visibility: N/A

Pressure: 30.04 "Hg

Humidity: 81%

Dew point: 39 °F

Location of NeuwiedLocation

Historic Weather in Neuwied — Graph

°F

Neuwied temperature yesterday

Maximum temperature yesterday: 50 °F (at 11:20 AM)
Minimum temperature yesterday: 41 °F (at 8:20 PM)
Average temperature yesterday: 47 °F

Past Weeks' High & Low Weather Summary

 TemperatureHumidityPressure
High66 °F (Oct 18, 3:20 PM)100% (Oct 7, 6:20 PM)30.15 "Hg (Oct 7, 6:20 PM)
Low37 °F (Oct 22, 5:20 AM)63% (Oct 15, 3:20 PM)29.56 "Hg (Oct 21, 4:20 PM)
Average53 °F91%29.88 "Hg
* Reported Oct 7 2:20 PM — Oct 22 2:20 PM, Neuwied, Weather by CustomWeather, © 2014

Note: Actual official high and low records may vary slightly from our data, if they occured in-between our weather recording intervals... More about our weather records

Advertising

Neuwied weather history for previous 24 hours

 ConditionsComfort  
Time TempWeatherWind HumidityBarometerVisibility
2:20 PM
Oct 22
43 °FSprinkles. Broken clouds.13 mph87%30.07 "HgN/A
1:20 PM45 °FBroken clouds.14 mph81%30.04 "HgN/A
12:20 PM43 °FLight rain. Partly sunny.15 mph87%30.04 "HgN/A
11:20 AM41 °FLight rain. Partly sunny.12 mph93%30.04 "HgN/A
10:20 AM39 °FLight rain. Partly sunny.9 mph93%30.04 "HgN/A
9:20 AM39 °FRain. Partly sunny.12 mph93%30.01 "HgN/A
8:20 AM39 °FLight rain. Partly cloudy.15 mph87%29.98 "HgN/A
7:20 AM39 °FPartly cloudy.14 mph93%29.95 "Hg6 mi
6:20 AM39 °FPartly cloudy.12 mph93%29.95 "Hg5 mi
5:20 AM37 °FPassing clouds.12 mph93%29.92 "Hg4 mi
4:20 AM41 °FLight rain. Fog.15 mph87%29.92 "Hg3 mi
3:20 AM41 °FQuite cool.12 mph81%29.92 "HgN/A
2:20 AM43 °FQuite cool.15 mph76%29.89 "HgN/A
1:20 AM43 °FQuite cool.13 mph76%29.89 "HgN/A
12:20 AM43 °FQuite cool.14 mph81%29.86 "Hg4 mi
11:20 PM
Oct 21
41 °FQuite cool.15 mph87%29.80 "HgN/A
10:20 PM41 °FQuite cool.17 mph81%29.77 "Hg3 mi
9:20 PM41 °FQuite cool.15 mph87%29.77 "HgN/A
8:20 PM41 °FQuite cool.14 mph93%29.71 "HgN/A
7:20 PM45 °FQuite cool.18 mph81%29.68 "HgN/A
6:20 PM46 °FCool.14 mph82%29.62 "HgN/A
5:20 PM48 °FBroken clouds.18 mph82%29.59 "HgN/A
4:48 PM50 °FFog.15 mph100%29.56 "Hg3 mi
4:20 PM50 °FDrizzle. Fog.15 mph100%29.56 "Hg2 mi
Weather by CustomWeather, © 2014

See weather overviewHow to use our weather pages